Location: Bothwell
(42.3833°S, 147.0000°E)
Time: 20:04:26
(UTC+11:00)

BEESAT - Pass Details

Date: 02 October 2022
Orbit: 699 x 706 km, 98.5° (Epoch: 25 November)

Event Time Altitude Azimuth Distance (km) Brightness Sun altitude
Exits shadow 19:55:02 - 57° (ENE) 2,440 ? -7.4°
Reaches altitude 10° 19:55:48 10° 62° (ENE) 2,187 ? -7.5°
Maximum altitude 19:59:38 25° 115° (ESE) 1,442 ? -8.2°
Drops below altitude 10° 20:03:31 10° 168° (SSE) 2,213 ? -8.9°
Sets 20:06:08 0° 181° (S) 3,141 ? -9.4°
